• In Portugal
  • List of Countries
  • For 7 days
  • Water Temperature
  • Satellite Maps
  • Weather Map
  • Weather Widgets
  • user-avatar
    Login

    Hourly Weather Pleven

    Today, 25 September, Tuesday

    Time Temperature Precipitation Wind Pressure Humidity
    00:00 +11°C° 0 mm 7 mps 750 mmHg 55%
    01:00 +11°C° 0 mm 7 mps 751 mmHg 56%
    02:00 +10°C° 0 mm 6 mps 751 mmHg 57%
    03:00 +9°C° 0 mm 6 mps 751 mmHg 59%
    04:00 +9°C° 0 mm 5 mps 752 mmHg 62%
    05:00 +8°C° 0 mm 5 mps 752 mmHg 64%
    06:00 +9°C° 0 mm 5 mps 752 mmHg 60%
    07:00 +9°C° 0 mm 5 mps 753 mmHg 56%
    08:00 +10°C° 0 mm 6 mps 753 mmHg 52%
    09:00 +11°C° 0 mm 6 mps 753 mmHg 46%
    10:00 +14°C° 0 mm 6 mps 753 mmHg 39%
    11:00 +16°C° 0 mm 7 mps 753 mmHg 33%
    12:00 +16°C° 0 mm 7 mps 753 mmHg 30%
    13:00 +17°C° 0 mm 7 mps 753 mmHg 27%
    14:00 +18°C° 0 mm 7 mps 753 mmHg 24%
    15:00 +17°C° 0 mm 6 mps 753 mmHg 25%
    16:00 +17°C° 0 mm 6 mps 753 mmHg 26%
    17:00 +16°C° 0 mm 5 mps 753 mmHg 26%
    18:00 +15°C° 0 mm 5 mps 754 mmHg 30%
    19:00 +13°C° 0 mm 4 mps 754 mmHg 34%
    20:00 +11°C° 0 mm 3 mps 755 mmHg 37%
    21:00 +11°C° 0 mm 3 mps 756 mmHg 40%
    22:00 +10°C° 0 mm 3 mps 756 mmHg 42%
    23:00 +10°C° 0 mm 2 mps 757 mmHg 44%

    Tomorrow, 26 September, Wednesday

    Time Temperature Precipitation Wind Pressure Humidity
    00:00 +9°C° 0 mm 2 mps 757 mmHg 46%
    01:00 +8°C° 0 mm 2 mps 757 mmHg 49%
    02:00 +8°C° 0 mm 1 mps 758 mmHg 51%
    03:00 +8°C° 0 mm 1 mps 758 mmHg 53%
    04:00 +8°C° 0 mm 1 mps 758 mmHg 54%
    05:00 +8°C° 0 mm 1 mps 758 mmHg 56%
    06:00 +8°C° 0 mm 1 mps 758 mmHg 53%
    07:00 +9°C° 0 mm 1 mps 759 mmHg 50%
    08:00 +10°C° 0 mm 1 mps 759 mmHg 47%
    09:00 +12°C° 0 mm 1 mps 759 mmHg 43%
    10:00 +14°C° 0 mm 1 mps 759 mmHg 40%
    11:00 +15°C° 0 mm 2 mps 759 mmHg 36%
    12:00 +16°C° 0 mm 2 mps 758 mmHg 34%
    13:00 +16°C° 0 mm 3 mps 758 mmHg 33%
    14:00 +16°C° 0 mm 3 mps 757 mmHg 32%
    15:00 +16°C° 0 mm 3 mps 757 mmHg 32%
    16:00 +16°C° 0 mm 2 mps 757 mmHg 33%
    17:00 +16°C° 0 mm 2 mps 757 mmHg 33%
    18:00 +14°C° 0 mm 2 mps 757 mmHg 38%
    19:00 +12°C° 0 mm 1 mps 757 mmHg 42%
    20:00 +11°C° 0 mm 1 mps 758 mmHg 47%
    21:00 +10°C° 0 mm 1 mps 758 mmHg 48%
    22:00 +9°C° 0 mm 1 mps 758 mmHg 49%
    23:00 +9°C° 0 mm 1 mps 759 mmHg 51%

    Day after tomorrow, 27 September, Thursday

    Time Temperature Precipitation Wind Pressure Humidity
    00:00 +8°C° 0 mm 1 mps 759 mmHg 51%
    01:00 +8°C° 0 mm 1 mps 759 mmHg 52%
    02:00 +7°C° 0 mm 1 mps 758 mmHg 53%
    03:00 +7°C° 0 mm 1 mps 758 mmHg 54%
    04:00 +7°C° 0 mm 1 mps 758 mmHg 55%
    05:00 +6°C° 0 mm 1 mps 758 mmHg 55%
    06:00 +8°C° 0 mm 1 mps 758 mmHg 52%
    07:00 +9°C° 0 mm 1 mps 758 mmHg 48%
    08:00 +10°C° 0 mm 1 mps 758 mmHg 44%
    09:00 +12°C° 0 mm 1 mps 757 mmHg 40%
    10:00 +14°C° 0 mm 1 mps 757 mmHg 36%
    11:00 +15°C° 0 mm 2 mps 757 mmHg 32%
    12:00 +16°C° 0 mm 2 mps 756 mmHg 30%
    13:00 +17°C° 0 mm 2 mps 755 mmHg 28%
    14:00 +18°C° 0 mm 2 mps 755 mmHg 26%
    15:00 +18°C° 0 mm 2 mps 754 mmHg 27%
    16:00 +17°C° 0 mm 2 mps 754 mmHg 27%
    17:00 +17°C° 0 mm 2 mps 753 mmHg 27%
    18:00 +15°C° 0 mm 1 mps 753 mmHg 32%
    19:00 +13°C° 0 mm 1 mps 753 mmHg 36%
    20:00 +11°C° 0 mm 1 mps 754 mmHg 40%
    21:00 +10°C° 0 mm 1 mps 754 mmHg 41%
    22:00 +10°C° 0 mm 1 mps 753 mmHg 41%
    23:00 +10°C° 0 mm 1 mps 753 mmHg 42%

    28 September, Friday

    Time Temperature Precipitation Wind Pressure Humidity
    00:00 +9°C° 0 mm 1 mps 753 mmHg 42%
    01:00 +9°C° 0 mm 1 mps 753 mmHg 42%
    02:00 +9°C° 0 mm 1 mps 753 mmHg 43%
    03:00 +9°C° 0 mm 1 mps 752 mmHg 43%
    04:00 +9°C° 0 mm 1 mps 752 mmHg 42%
    05:00 +9°C° 0 mm 1 mps 752 mmHg 42%
    06:00 +9°C° 0 mm 0 mps 752 mmHg 40%
    07:00 +10°C° 0 mm 0 mps 752 mmHg 38%
    08:00 +11°C° 0 mm 0 mps 752 mmHg 36%
    09:00 +14°C° 0 mm 1 mps 752 mmHg 33%
    10:00 +16°C° 0 mm 1 mps 751 mmHg 29%
    11:00 +18°C° 0 mm 2 mps 751 mmHg 26%
    12:00 +19°C° 0 mm 2 mps 750 mmHg 26%
    13:00 +20°C° 0 mm 3 mps 750 mmHg 25%
    14:00 +21°C° 0 mm 3 mps 749 mmHg 25%
    15:00 +21°C° 0 mm 3 mps 748 mmHg 26%
    16:00 +21°C° 0 mm 3 mps 748 mmHg 28%
    17:00 +21°C° 0 mm 2 mps 747 mmHg 30%
    18:00 +19°C° 0 mm 2 mps 747 mmHg 34%
    19:00 +16°C° 0 mm 1 mps 747 mmHg 38%
    20:00 +14°C° 0 mm 1 mps 747 mmHg 43%
    21:00 +14°C° 0 mm 1 mps 747 mmHg 44%
    22:00 +14°C° 0 mm 1 mps 747 mmHg 46%
    23:00 +13°C° 0 mm 1 mps 747 mmHg 47%

    29 September, Saturday

    Time Temperature Precipitation Wind Pressure Humidity
    00:00 +13°C° 0 mm 1 mps 747 mmHg 48%
    01:00 +13°C° 0 mm 1 mps 747 mmHg 50%
    02:00 +13°C° 0 mm 1 mps 747 mmHg 51%
    03:00 +12°C° 0 mm 1 mps 747 mmHg 52%
    04:00 +12°C° 0 mm 1 mps 746 mmHg 54%
    05:00 +12°C° 0 mm 1 mps 746 mmHg 55%
    06:00 +13°C° 0 mm 1 mps 746 mmHg 52%
    07:00 +14°C° 0 mm 1 mps 746 mmHg 49%
    08:00 +15°C° 0 mm 1 mps 746 mmHg 46%
    09:00 +18°C° 0 mm 1 mps 746 mmHg 41%
    10:00 +20°C° 0 mm 1 mps 746 mmHg 36%
    11:00 +21°C° 0 mm 2 mps 746 mmHg 31%
    12:00 +23°C° 0 mm 2 mps 746 mmHg 29%
    13:00 +24°C° 0 mm 2 mps 746 mmHg 28%
    14:00 +25°C° 0 mm 2 mps 745 mmHg 27%
    15:00 +24°C° 0 mm 2 mps 745 mmHg 28%
    16:00 +24°C° 0 mm 1 mps 745 mmHg 30%
    17:00 +23°C° 0 mm 1 mps 745 mmHg 31%
    18:00 +21°C° 0 mm 1 mps 746 mmHg 34%
    19:00 +19°C° 0 mm 1 mps 746 mmHg 38%
    20:00 +16°C° 0 mm 1 mps 747 mmHg 41%
    21:00 +16°C° 0 mm 1 mps 747 mmHg 42%
    22:00 +15°C° 0 mm 1 mps 747 mmHg 42%
    23:00 +15°C° 0 mm 1 mps 748 mmHg 43%

    30 September, Sunday

    Time Temperature Precipitation Wind Pressure Humidity
    00:00 +15°C° 0 mm 1 mps 748 mmHg 45%
    01:00 +14°C° 0 mm 1 mps 748 mmHg 47%
    02:00 +14°C° 0 mm 1 mps 748 mmHg 49%
    03:00 +13°C° 0 mm 1 mps 749 mmHg 55%
    04:00 +13°C° 0 mm 1 mps 749 mmHg 60%
    05:00 +12°C° 0 mm 2 mps 749 mmHg 66%
    06:00 +13°C° 0 mm 2 mps 750 mmHg 64%
    07:00 +14°C° 0 mm 2 mps 750 mmHg 63%
    08:00 +15°C° 0 mm 2 mps 750 mmHg 62%
    09:00 +17°C° 0 mm 2 mps 750 mmHg 57%
    10:00 +19°C° 0 mm 3 mps 750 mmHg 53%
    11:00 +21°C° 0 mm 3 mps 750 mmHg 48%
    12:00 +22°C° 0 mm 3 mps 750 mmHg 46%
    13:00 +22°C° 0 mm 3 mps 750 mmHg 44%
    14:00 +24°C° 0 mm 3 mps 749 mmHg 42%
    15:00 +24°C° 0 mm 3 mps 749 mmHg 44%
    16:00 +22°C° 0 mm 3 mps 749 mmHg 45%
    17:00 +22°C° 0 mm 3 mps 749 mmHg 47%
    18:00 +20°C° 0 mm 3 mps 749 mmHg 53%
    19:00 +18°C° 0 mm 2 mps 749 mmHg 59%
    20:00 +16°C° 0 mm 2 mps 750 mmHg 65%
    21:00 +16°C° 0 mm 2 mps 750 mmHg 66%
    22:00 +15°C° 0 mm 2 mps 750 mmHg 68%
    23:00 +15°C° 0 mm 2 mps 750 mmHg 69%
    Show more